EW5365 Weather Reports


time (UTC)temp
C
wind
direction
speed
KPH
gust
KPH
rain 1hr
cm
rain 24hr
cm
rain mn
cm
humidity
%
barometer
mb
20260506202228 28 180 0.0 1.6 0.00 0.00 0.00 22 1016.1
20260506201715 28 198 0.0 1.6 0.00 0.00 0.00 23 1016.2
20260506201224 28 86 0.0 0.0 0.00 0.00 0.00 23 1016.2
20260506200731 28 87 0.0 6.4 0.00 0.00 0.00 22 1016.3
20260506200218 28 76 0.0 6.4 0.00 0.00 0.00 23 1016.4
20260506195747 28 109 0.0 1.6 0.00 0.00 0.00 25 1016.5
20260506195218 28 138 0.0 1.6 0.00 0.00 0.00 23 1016.6
20260506194726 28 236 0.0 12.9 0.00 0.00 0.00 24 1016.7
20260506194216 28 188 1.6 12.9 0.00 0.00 0.00 23 1016.8
20260506193221 27 172 0.0 1.6 0.00 0.00 0.00 22 1016.9
20260506192730 28 119 0.0 16.1 0.00 0.00 0.00 22 1016.9
20260506192218 28 123 0.0 1.6 0.00 0.00 0.00 25 1016.9
20260506191726 27 238 0.0 0.0 0.00 0.00 0.00 26 1016.9
20260506191216 27 244 0.0 0.0 0.00 0.00 0.00 23 1017.0
20260506190723 27 248 0.0 0.0 0.00 0.00 0.00 25 1017.1
20260506185725 26 309 0.0 0.0 0.00 0.00 0.00 25 1017.3
20260506185213 26 82 0.0 0.0 0.00 0.00 0.00 23 1017.3
20260506184725 26 82 0.0 1.6 0.00 0.00 0.00 26 1017.3
20260506184214 26 55 0.0 4.8 0.00 0.00 0.00 26 1017.4
20260506183722 26 57 0.0 4.8 0.00 0.00 0.00 25 1017.5
20260506183229 26 290 0.0 0.0 0.00 0.00 0.00 24 1017.5
20260506182213 26 225 0.0 0.0 0.00 0.00 0.00 24 1017.6
20260506181722 26 221 0.0 0.0 0.00 0.00 0.00 24 1017.7
20260506181253 26 150 0.0 0.0 0.00 0.00 0.00 26 1017.7
20260506180721 25 149 0.0 0.0 0.00 0.00 0.00 24 1017.6
20260506180229 25 26 0.0 0.0 0.00 0.00 0.00 27 1017.7
20260506175719 25 22 0.0 0.0 0.00 0.00 0.00 25 1017.7
20260506175227 25 22 0.0 0.0 0.00 0.00 0.00 25 1017.7
20260506174719 25 92 0.0 0.0 0.00 0.00 0.00 27 1017.7
20260506174229 25 93 0.0 0.0 0.00 0.00 0.00 27 1017.7
20260506173716 25 93 0.0 0.0 0.00 0.00 0.00 26 1017.8
20260506173222 24 164 0.0 0.0 0.00 0.00 0.00 25 1017.9
20260506172731 24 144 0.0 0.0 0.00 0.00 0.00 24 1017.8
20260506172239 24 151 0.0 0.0 0.00 0.00 0.00 26 1017.8
20260506171726 24 173 0.0 0.0 0.00 0.00 0.00 28 1017.9
20260506171215 23 174 0.0 0.0 0.00 0.00 0.00 28 1017.8
20260506170722 23 175 0.0 0.0 0.00 0.00 0.00 27 1017.9
20260506170230 23 92 0.0 0.0 0.00 0.00 0.00 27 1017.8
20260506165723 23 115 0.0 1.6 0.00 0.00 0.00 28 1017.8
20260506165231 23 133 0.0 1.6 0.00 0.00 0.00 28 1017.7
20260506164720 22 331 0.0 0.0 0.00 0.00 0.00 28 1017.7
20260506164231 22 65 0.0 0.0 0.00 0.00 0.00 29 1017.8
20260506163719 22 65 0.0 0.0 0.00 0.00 0.00 27 1017.8
20260506163227 22 87 0.0 0.0 0.00 0.00 0.00 28 1017.9
20260506162735 22 87 0.0 0.0 0.00 0.00 0.00 29 1017.8
20260506162220 22 88 0.0 0.0 0.00 0.00 0.00 29 1017.8
20260506161747 21 24 0.0 0.0 0.00 0.00 0.00 29 1017.7
20260506160729 21 63 0.0 0.0 0.00 0.00 0.00 29 1017.8
20260506160217 21 64 0.0 0.0 0.00 0.00 0.00 31 1017.7
20260506155727 21 74 0.0 0.0 0.00 0.00 0.00 29 1017.7
20260506155218 21 77 0.0 0.0 0.00 0.00 0.00 30 1017.7
20260506154727 21 77 0.0 0.0 0.00 0.00 0.00 30 1017.7
20260506154216 21 78 0.0 0.0 0.00 0.00 0.00 31 1017.7
20260506153724 20 78 0.0 0.0 0.00 0.00 0.00 32 1017.6
20260506153231 20 78 0.0 0.0 0.00 0.00 0.00 32 1017.6
20260506152741 20 78 0.0 0.0 0.00 0.00 0.00 32 1017.5
20260506151723 20 78 0.0 0.0 0.00 0.00 0.00 32 1017.6
20260506151213 19 78 0.0 0.0 0.00 0.00 0.00 33 1017.5
20260506150721 19 78 0.0 0.0 0.00 0.00 0.00 35 1017.6
20260506150229 18 78 0.0 0.0 0.00 0.00 0.00 34 1017.6
20260506145722 18 78 0.0 0.0 0.00 0.00 0.00 37 1017.5
20260506145230 18 78 0.0 0.0 0.00 0.00 0.00 36 1017.5
20260506144215 17 186 0.0 0.0 0.00 0.00 0.00 38 1017.4
20260506143744 16 186 0.0 3.2 0.00 0.00 0.00 40 1017.4
20260506143231 16 188 0.0 0.0 0.00 0.00 0.00 41 1017.3
20260506142721 15 188 0.0 0.0 0.00 0.00 0.00 46 1017.3
20260506142229 14 188 0.0 0.0 0.00 0.00 0.00 47 1017.2
20260506141718 13 188 0.0 0.0 0.00 0.00 0.00 50 1017.1
20260506141248 13 188 0.0 0.0 0.00 0.00 0.00 56 1017.2
20260506140713 12 188 0.0 0.0 0.00 0.00 0.00 60 1017.1
20260506140241 11 188 0.0 0.0 0.00 0.00 0.00 63 1017.1
20260506135224 10 188 0.0 0.0 0.00 0.00 0.00 66 1016.9
20260506134753 9 188 0.0 0.0 0.00 0.00 0.00 66 1016.7
20260506134220 8 188 0.0 0.0 0.00 0.00 0.00 66 1016.6
20260506133731 8 188 0.0 0.0 0.00 0.00 0.00 66 1016.5
20260506133240 8 188 0.0 0.0 0.00 0.00 0.00 65 1016.4
20260506132727 7 188 0.0 0.0 0.00 0.00 0.00 64 1016.3
20260506132216 7 188 0.0 0.0 0.00 0.00 0.00 64 1016.3
20260506131724 7 188 0.0 0.0 0.00 0.00 0.00 63 1016.3
20260506131214 7 188 0.0 0.0 0.00 0.00 0.00 62 1016.1
20260506130721 7 188 0.0 0.0 0.00 0.00 0.00 62 1016.1
20260506130228 7 188 0.0 0.0 0.00 0.00 0.00 62 1016.0
20260506125718 7 188 0.0 0.0 0.00 0.00 0.00 63 1015.9
20260506125225 7 188 0.0 0.0 0.00 0.00 0.00 63 1015.8
20260506124753 7 188 0.0 0.0 0.00 0.00 0.00 63 1015.7
20260506124219 7 188 0.0 0.0 0.00 0.00 0.00 62 1015.6
20260506123732 7 188 0.0 0.0 0.00 0.00 0.00 61 1015.5
20260506123219 7 188 0.0 0.0 0.00 0.00 0.00 61 1015.4
20260506122750 7 188 0.0 0.0 0.00 0.00 0.00 60 1015.4
20260506122237 7 188 0.0 0.0 0.00 0.00 0.00 60 1015.3
20260506121726 7 188 0.0 0.0 0.00 0.00 0.00 60 1015.3
20260506121216 7 188 0.0 0.0 0.00 0.00 0.00 60 1015.1
20260506120724 7 188 0.0 0.0 0.00 0.00 0.00 59 1015.1
20260506120212 7 188 0.0 0.0 0.00 0.00 0.00 59 1015.1
20260506115742 8 188 0.0 0.0 0.00 0.00 0.00 59 1015.0
20260506115228 8 188 0.0 0.0 0.00 0.00 0.00 59 1015.0
20260506114715 8 188 0.0 0.0 0.00 0.00 0.00 57 1014.9
20260506114223 8 188 0.0 0.0 0.00 0.00 0.00 56 1014.8
20260506113714 8 188 0.0 0.0 0.00 0.00 0.00 56 1014.7
20260506113224 8 188 0.0 0.0 0.00 0.00 0.00 55 1014.8
20260506112714 8 188 0.0 0.0 0.00 0.00 0.00 56 1014.8
20260506112223 8 188 0.0 0.0 0.00 0.00 0.00 56 1014.8
20260506111730 9 188 0.0 0.0 0.00 0.00 0.00 57 1014.8
20260506111219 9 188 0.0 0.0 0.00 0.00 0.00 55 1014.7
20260506110747 9 188 0.0 0.0 0.00 0.00 0.00 55 1014.7
20260506110215 9 188 0.0 0.0 0.00 0.00 0.00 54 1014.6
20260506105725 9 188 0.0 0.0 0.00 0.00 0.00 54 1014.5
20260506105214 10 188 0.0 0.0 0.00 0.00 0.00 53 1014.6
20260506104743 10 188 0.0 0.0 0.00 0.00 0.00 52 1014.5
20260506104216 10 188 0.0 0.0 0.00 0.00 0.00 52 1014.4
20260506103743 10 188 0.0 0.0 0.00 0.00 0.00 51 1014.4
20260506102728 10 188 0.0 0.0 0.00 0.00 0.00 49 1014.3
20260506102217 10 188 0.0 0.0 0.00 0.00 0.00 49 1014.3
20260506101725 11 188 0.0 0.0 0.00 0.00 0.00 48 1014.2
20260506101215 11 188 0.0 0.0 0.00 0.00 0.00 48 1014.2
20260506100724 11 188 0.0 0.0 0.00 0.00 0.00 47 1014.1
20260506100213 11 188 0.0 0.0 0.00 0.00 0.00 47 1014.1
20260506095724 11 188 0.0 0.0 0.00 0.00 0.00 46 1014.0
20260506095232 12 188 0.0 0.0 0.00 0.00 0.00 44 1013.8
20260506094719 12 188 0.0 0.0 0.00 0.00 0.00 44 1013.7
20260506094213 12 188 0.0 0.0 0.00 0.00 0.00 43 1013.6
20260506093722 12 188 0.0 0.0 0.00 0.00 0.00 43 1013.7
20260506093229 13 188 0.0 0.0 0.00 0.00 0.00 42 1013.7
20260506092720 13 188 0.0 0.0 0.00 0.00 0.00 40 1013.6
20260506092248 13 188 0.0 0.0 0.00 0.00 0.00 41 1013.4
20260506091714 14 188 0.0 0.0 0.00 0.00 0.00 40 1013.3
20260506091225 15 188 0.0 0.0 0.00 0.00 0.00 39 1013.3
20260506090250 15 188 0.0 0.0 0.00 0.00 0.00 37 1013.2
20260506085720 16 188 0.0 0.0 0.00 0.00 0.00 36 1013.2
20260506085229 16 188 0.0 0.0 0.00 0.00 0.00 35 1013.1
20260506084718 16 188 0.0 0.0 0.00 0.00 0.00 35 1013.1
20260506084228 16 188 0.0 0.0 0.00 0.00 0.00 34 1013.1
20260506083717 17 182 0.0 0.0 0.00 0.00 0.00 34 1013.0
20260506083230 17 183 0.0 0.0 0.00 0.00 0.00 33 1013.1
20260506082720 17 103 0.0 0.0 0.00 0.00 0.00 32 1013.0
20260506082229 17 103 0.0 0.0 0.00 0.00 0.00 31 1013.0
20260506081717 18 105 0.0 4.8 0.00 0.00 0.00 31 1013.0
20260506081228 18 79 0.0 4.8 0.00 0.00 0.00 31 1013.0
20260506080716 18 78 0.0 8.0 0.00 0.00 0.00 30 1013.0
20260506080225 18 79 0.0 8.0 0.00 0.00 0.00 30 1012.9
20260506073219 18 101 0.0 0.0 0.00 0.00 0.00 29 1012.9
20260506072730 19 157 0.0 0.0 0.00 0.00 0.00 29 1012.9
20260506072239 19 157 0.0 0.0 0.00 0.00 0.00 29 1012.9
20260506071727 19 137 0.0 0.0 0.00 0.00 0.00 28 1012.9
20260506071216 19 188 0.0 0.0 0.00 0.00 0.00 28 1012.8
20260506070219 19 175 1.6 11.3 0.00 0.00 0.00 28 1012.7
20260506062231 20 184 0.0 12.9 0.00 0.00 0.00 26 1012.5
20260506061719 20 174 4.8 12.9 0.00 0.00 0.00 26 1012.5
20260506061229 20 159 0.0 16.1 0.00 0.00 0.00 26 1012.4
20260506060716 20 201 0.0 16.1 0.00 0.00 0.00 26 1012.4
20260506060225 20 199 1.6 20.9 0.00 0.00 0.00 26 1012.3
20260506051218 21 175 4.8 27.4 0.00 0.00 0.00 25 1012.1
20260506050727 21 183 11.3 27.4 0.00 0.00 0.00 25 1011.9
20260506050215 21 190 4.8 19.3 0.00 0.00 0.00 25 1011.8
20260506044727 21 172 1.6 19.3 0.00 0.00 0.00 25 1011.6
20260506044218 21 202 3.2 17.7 0.00 0.00 0.00 25 1011.4
20260506043725 21 190 4.8 19.3 0.00 0.00 0.00 25 1011.4
20260506043213 21 176 4.8 19.3 0.00 0.00 0.00 25 1011.3
20260506042721 21 173 3.2 12.9 0.00 0.00 0.00 25 1011.2
20260506042228 21 175 1.6 9.7 0.00 0.00 0.00 24 1011.2
20260506041716 21 144 1.6 8.0 0.00 0.00 0.00 24 1011.1
20260506041225 21 179 0.0 0.0 0.00 0.00 0.00 24 1011.1
20260506040717 21 155 0.0 0.0 0.00 0.00 0.00 24 1011.0
20260506040224 21 150 0.0 0.0 0.00 0.00 0.00 24 1010.9
20260506035753 21 174 0.0 0.0 0.00 0.00 0.00 24 1010.9
20260506035242 21 196 0.0 0.0 0.00 0.00 0.00 23 1010.8
20260506034749 21 169 0.0 0.0 0.00 0.00 0.00 23 1010.6
20260506034216 21 205 0.0 0.0 0.00 0.00 0.00 23 1010.6
20260506033722 21 150 0.0 3.2 0.00 0.00 0.00 23 1010.5
20260506033231 21 193 0.0 3.2 0.00 0.00 0.00 23 1010.5
20260506032741 21 173 0.0 1.6 0.00 0.00 0.00 23 1010.4
20260506032247 21 194 0.0 0.0 0.00 0.00 0.00 23 1010.3
20260506031736 21 164 0.0 3.2 0.00 0.00 0.00 23 1010.2
20260506031244 21 153 0.0 3.2 0.00 0.00 0.00 23 1010.1
20260506030732 21 171 0.0 8.0 0.00 0.00 0.00 24 1010.1
20260506030220 21 182 1.6 8.0 0.00 0.00 0.00 24 1010.0
20260506025714 21 167 0.0 0.0 0.00 0.00 0.00 25 1010.0
20260506025224 22 165 0.0 0.0 0.00 0.00 0.00 25 1009.9
20260506024731 22 173 0.0 0.0 0.00 0.00 0.00 24 1009.8
20260506024220 22 182 0.0 1.6 0.00 0.00 0.00 24 1009.8
20260506023728 22 184 0.0 1.6 0.00 0.00 0.00 24 1009.8
20260506023217 22 202 0.0 9.7 0.00 0.00 0.00 24 1009.7
20260506022727 22 177 0.0 9.7 0.00 0.00 0.00 24 1009.6
20260506022216 22 178 0.0 1.6 0.00 0.00 0.00 24 1009.6
20260506021725 22 179 0.0 1.6 0.00 0.00 0.00 24 1009.6
20260506021219 23 178 0.0 8.0 0.00 0.00 0.00 24 1009.5
20260506020728 23 221 0.0 8.0 0.00 0.00 0.00 23 1009.5
20260506020216 23 151 0.0 0.0 0.00 0.00 0.00 24 1009.4
20260506015725 23 184 0.0 6.4 0.00 0.00 0.00 24 1009.3
20260506015213 23 194 0.0 6.4 0.00 0.00 0.00 24 1009.3
20260506014721 23 174 0.0 3.2 0.00 0.00 0.00 24 1009.2
20260506014230 23 168 0.0 3.2 0.00 0.00 0.00 23 1009.2
20260506013717 23 139 0.0 0.0 0.00 0.00 0.00 25 1009.2
20260506013222 23 163 0.0 1.6 0.00 0.00 0.00 24 1009.2
20260506012733 24 125 0.0 1.6 0.00 0.00 0.00 24 1009.2
20260506012225 24 163 0.0 0.0 0.00 0.00 0.00 23 1009.1
20260506011712 24 167 0.0 0.0 0.00 0.00 0.00 23 1009.2
20260506011222 24 171 0.0 1.6 0.00 0.00 0.00 23 1009.2
20260506010731 24 184 0.0 6.4 0.00 0.00 0.00 23 1009.2
20260506010218 25 169 0.0 11.3 0.00 0.00 0.00 22 1009.2
20260506005730 25 171 0.0 0.0 0.00 0.00 0.00 22 1009.1
20260506005217 25 162 0.0 1.6 0.00 0.00 0.00 23 1009.1
20260506004745 25 169 0.0 1.6 0.00 0.00 0.00 22 1009.1
20260506004234 25 134 0.0 0.0 0.00 0.00 0.00 23 1009.0
20260506003720 25 171 0.0 0.0 0.00 0.00 0.00 22 1009.0
20260506003227 25 164 0.0 0.0 0.00 0.00 0.00 23 1009.0
20260506002719 25 117 0.0 0.0 0.00 0.00 0.00 21 1009.0
20260506002226 25 213 0.0 0.0 0.00 0.00 0.00 22 1009.1
20260506001714 25 199 0.0 0.0 0.00 0.00 0.00 21 1009.2
20260506001243 25 119 0.0 0.0 0.00 0.00 0.00 22 1009.1
20260506000730 25 208 0.0 0.0 0.00 0.00 0.00 22 1009.0
20260506000219 25 84 0.0 0.0 0.00 0.00 0.00 21 1009.1
20260505235728 25 24 0.0 0.0 0.00 0.00 0.00 20 1009.1
20260505235215 25 86 0.0 0.0 0.00 0.00 0.00 20 1009.1
20260505234744 25 57 0.0 0.0 0.00 0.00 0.00 21 1009.1
20260505234231 25 57 0.0 3.2 0.00 0.00 0.00 20 1009.2
20260505233718 25 111 0.0 3.2 0.00 0.00 0.00 22 1009.2
20260505233230 25 317 0.0 6.4 0.00 0.00 0.00 21 1009.2
20260505232719 25 86 0.0 6.4 0.00 0.00 0.00 20 1009.3
20260505232228 26 58 0.0 6.4 0.00 0.00 0.00 20 1009.3
20260505231715 26 77 0.0 6.4 0.00 0.00 0.00 20 1009.3
20260505231225 26 173 0.0 0.0 0.00 0.00 0.00 20 1009.4
20260505230732 26 118 0.0 0.0 0.00 0.00 0.00 21 1009.4
20260505230220 26 120 0.0 11.3 0.00 0.00 0.00 21 1009.5
20260505225731 26 157 0.0 11.3 0.00 0.00 0.00 21 1009.5
20260505225240 26 178 0.0 0.0 0.00 0.00 0.00 21 1009.6
20260505224727 25 157 0.0 1.6 0.00 0.00 0.00 22 1009.7
20260505224221 25 325 0.0 0.0 0.00 0.00 0.00 21 1009.6
20260505223729 26 202 0.0 0.0 0.00 0.00 0.00 19 1009.6
20260505223216 26 167 0.0 8.0 0.00 0.00 0.00 20 1009.7
20260505222725 26 205 1.6 8.0 0.00 0.00 0.00 22 1009.8
20260505222213 26 136 0.0 6.4 0.00 0.00 0.00 22 1009.9
20260505221720 25 132 0.0 1.6 0.00 0.00 0.00 22 1010.0
20260505221251 25 101 0.0 3.2 0.00 0.00 0.00 20 1010.1
20260505220718 25 217 0.0 9.7 0.00 0.00 0.00 21 1010.2
20260505220228 25 41 0.0 8.0 0.00 0.00 0.00 20 1010.2
20260505215722 25 38 1.6 8.0 0.00 0.00 0.00 21 1010.2
20260505215252 25 69 0.0 14.5 0.00 0.00 0.00 21 1010.4
20260505214718 26 70 1.6 14.5 0.00 0.00 0.00 20 1010.4
20260505214227 26 112 0.0 1.6 0.00 0.00 0.00 22 1010.4
20260505213716 25 194 0.0 6.4 0.00 0.00 0.00 21 1010.5
20260505213226 26 119 0.0 6.4 0.00 0.00 0.00 22 1010.5
20260505212737 26 101 0.0 9.7 0.00 0.00 0.00 22 1010.6
20260505212223 25 202 1.6 16.1 0.00 0.00 0.00 22 1010.6
20260505211712 25 102 3.2 14.5 0.00 0.00 0.00 22 1010.6
20260505211221 25 114 0.0 0.0 0.00 0.00 0.00 23 1010.8
20260505210748 25 87 0.0 0.0 0.00 0.00 0.00 23 1010.9
20260505210215 25 134 0.0 0.0 0.00 0.00 0.00 22 1011.0
20260505205729 25 236 0.0 0.0 0.00 0.00 0.00 24 1010.9
20260505205238 23 185 0.0 3.2 0.00 0.00 0.00 26 1011.1
20260505204725 23 5 0.0 6.4 0.00 0.00 0.00 25 1011.1
20260505204215 24 59 0.0 3.2 0.00 0.00 0.00 24 1011.2
20260505203724 23 112 0.0 1.6 0.00 0.00 0.00 24 1011.2
20260505203213 23 49 0.0 3.2 0.00 0.00 0.00 26 1011.2
20260505202723 23 350 0.0 3.2 0.00 0.00 0.00 24 1011.2